Regional Weather Roundup
Issued by NWS

Home | Current Version | Previous Version | Graphics & Text | Print | Product List | Glossary On
Versions: 1 2 3 4 5 6 7 8 9 10 11 12 13 14 15 16 17 18 19 20 21 22 23 24 25 26 27 28 29 30 31 32 33 34 35 36 37 38 39 40 41 42 43 44 45 46 47 48 49 50
000
ASUS43 KOAX 230810
RWRNE

WEATHER ROUNDUP FOR NEBRASKA
NATIONAL WEATHER SERVICE OMAHA NE
300 AM CDT SUN JUL 23 2017

NOTES: SATELLITE DATA IS BEING USED TO AUGMENT CLOUD COVER ABOVE
       12000 FEET.
       "FAIR" INDICATES FEW OR NO CLOUDS BELOW 12,000 FEET WITH NO
       SIGNIFICANT WEATHER AND/OR OBSTRUCTIONS TO VISIBILITY.


NEZ001>004-019>022-054>056-230900-
NEBRASKA PANHANDLE

CITY           SKY/WX    TMP DP  RH WIND       PRES   REMARKS
SCOTTSBLUFF    CLEAR     65  51  60 E6        30.12F
ALLIANCE       CLEAR     56  47  71 CALM      30.11F
CHADRON        CLEAR     59  52  77 CALM      30.08S
GORDON         FAIR      61  56  84 CALM      30.10F
KIMBALL        CLEAR     61  55  82 SW3       30.19S
SIDNEY         CLEAR     57  47  69 SW8       30.15F
$$

NEZ057>060-069>072-079>082-230900-
SOUTHWEST NEBRASKA

CITY           SKY/WX    TMP DP  RH WIND       PRES   REMARKS
NORTH PLATTE   CLEAR     57  54  89 NW5       30.05F
IMPERIAL       CLOUDY    60  54  80 NW3       30.09S
LEXINGTON      CLEAR     64  63  94 W5        30.02F FOG
MCCOOK         CLEAR     61  59  93 SW5       30.03F
OGALLALA       CLEAR     60  53  77 CALM      30.09F
$$

NEZ005>010-023>029-035>040-094-230900-
NORTH CENTRAL NEBRASKA

CITY           SKY/WX    TMP DP  RH WIND       PRES   REMARKS
VALENTINE      CLEAR     68  45  43 N7        30.04F
AINSWORTH      CLEAR     70  53  55 NW9       30.03R
BROKEN BOW     CLEAR     63  61  93 CALM      30.02F
O`NEILL        PTCLDY    66  61  85 NE5       29.99R
ORD            CLEAR     64  60  87 CALM      29.98F
THEDFORD       CLEAR     64  53  65 W5        30.06F
$$

NEZ041-046>049-061>064-073>077-083>087-230900-
SOUTH CENTRAL NEBRASKA

CITY           SKY/WX    TMP DP  RH WIND       PRES   REMARKS
GRAND ISLAND   CLEAR     66  66 100 CALM      29.97F
AURORA         CLEAR     65  65 100 N5        29.96F
HASTINGS       CLEAR     69  66  90 N5        29.98F
HEBRON         CLEAR     71  68  92 CALM      29.94F
HOLDREGE       CLEAR     67  65  95 NW3       30.00F FOG
KEARNEY        CLEAR     69  67  93 NW5       29.99F
YORK           CLEAR     68  68 100 NW3       29.96F
$$

NEZ011>018-030>034-042>045-230900-
NORTHEAST NEBRASKA

CITY           SKY/WX    TMP DP  RH WIND       PRES   REMARKS
NORFOLK        CLEAR     63  62  97 CALM      29.97R FOG
ALBION         CLEAR     66  62  87 CALM      29.98S
BLAIR          CLEAR     71  70  96 NW5       29.94S FOG
COLUMBUS       FOG       61  60  97 CALM      29.96S VSB 1/4
FREMONT        CLEAR     66  65  97 CALM      29.94S
TEKAMAH        CLEAR     66  64  93 SW6       29.92F FOG
WAYNE          CLEAR     63  63  99 CALM      29.96S FOG
$$

NEZ050>053-065>068-078-088>093-230900-
SOUTHEAST NEBRASKA

CITY           SKY/WX    TMP DP  RH WIND       PRES   REMARKS
LINCOLN        CLEAR     69  68  96 N8        29.93F
OMAHA EPPLEY   PTCLDY    72  68  87 CALM      29.93S
BEATRICE       PTCLDY    73  70  92 CALM      29.93F
FALLS CITY     PTCLDY    75  68  78 W3        29.91F
NEBRASKA CITY  CLEAR     75  75 100 NW3       29.92F
PLATTSMOUTH    CLEAR     69  67  93 W3        29.93F
$$

NEZ044-045-051>053-067-230900-
OMAHA AREA

CITY           SKY/WX    TMP DP  RH WIND       PRES   REMARKS
OMAHA EPPLEY   PTCLDY    72  68  87 CALM      29.93S
BLAIR          CLEAR     71  70  96 NW5       29.94S FOG
FREMONT        CLEAR     66  65  97 CALM      29.94S
MILLARD        CLEAR     73  72  96 CALM      29.93S FOG
OFFUTT AFB     CLEAR     69  67  94 NW6       29.92S
PLATTSMOUTH    CLEAR     69  67  93 W3        29.93F
WAHOO          FAIR      65  64  97 NW3       29.94S FOG
$$




USA.gov is the U.S. government's official web portal to all federal, state and local government web resources and services.